#timestamp,LO_Frequency,Hit,StdDev 
1561582815.1,286047003.7,Y
1561582816.0,286047003.7,P
1561582835.8,286047002.4,N
1561582855.7,286046999.8,N
1561582875.5,286046999.9,N
1561582895.3,286047000.4,N
1561582915.2,286047000.5,N
1561582935.0,286047000.0,N
1561582935.9,286047000.0,N
1561582955.7,286047002.3,N
1561582975.6,286047002.2,N
1561582995.4,286047002.6,N
1561583015.3,286047002.0,N
1561583035.1,286047004.3,Y
1561583055.8,286047000.3,P
1561583075.7,286047000.3,N
1561583095.5,286047000.1,N
1561583115.4,286046999.9,N
1561583135.2,286047002.5,Y
1561583155.0,286047001.7,P
1561583155.9,286047001.7,N
1561583175.8,286047000.0,N
1561583195.6,286047000.2,N
1561583215.4,286047002.3,Y
1561583235.3,286047000.2,P
1561583255.1,286047000.9,N
1561583275.9,286047001.1,P
1561583295.7,286046998.1,Y
1561583315.5,286046998.2,P
1561583335.4,286046998.1,N
1561583355.2,286047000.7,N
1561583375.0,286047000.7,N
1561583375.9,286047000.7,N
1561583395.8,286047002.8,N
1561583415.6,286047003.8,N
1561583435.5,286047006.0,Y
1561583455.3,286047005.5,P
1561583475.1,286047002.9,N
1561583495.9,286047005.1,N
1561583515.7,286047002.9,N
1561583535.5,286047003.5,N
1561583555.4,286047005.4,Y
1561583575.2,286047004.3,P
1561583595.1,286047002.2,P
1561583596.0,286047002.2,N
1561583615.8,286047001.5,N
1561583635.6,286047003.6,Y
1561583655.5,286047000.8,P
1561583675.3,286047002.6,N
1561583695.2,286047001.8,N
1561583715.9,286047002.0,N
1561583735.7,286047001.5,N
1561583755.6,286047001.5,N
1561583775.4,286047003.0,Y
1561583795.2,286047001.6,P
1561583815.1,286046999.8,N
1561583816.0,286046999.8,N
1561583835.8,286047002.1,N
1561583855.7,286047001.6,N
1561583875.5,286047001.9,N
1561583895.3,286047004.0,Y
1561583915.2,286047000.4,P
1561583935.0,286047000.6,N
1561583935.9,286047000.6,N
1561583955.7,286047000.2,N
1561583975.6,286047001.5,Y
1561583995.4,286047000.3,P
1561584015.3,286047000.5,P
1561584035.1,286047004.4,P
1561584036.0,286047004.4,N
1561584055.8,286047002.7,N
1561584075.7,286047001.6,N
1561584095.5,286047004.0,N
1561584115.3,286047003.3,N
1561584135.2,286047003.6,N
1561584155.0,286047003.9,N
1561584155.9,286047003.9,N
1561584175.8,286047003.2,N
1561584195.6,286047003.0,N
1561584215.4,286047003.5,N
1561584235.3,286047003.8,N
1561584255.1,286047003.0,N
1561584275.8,286047005.4,Y
1561584295.7,286047001.6,P
1561584315.5,286047002.2,P
1561584335.4,286047003.8,P
1561584355.2,286047004.4,Y
1561584375.0,286047000.5,P
1561584375.9,286047000.5,N
1561584395.8,286047000.9,N
1561584415.6,286047000.1,N
1561584435.5,286046999.8,N
1561584455.3,286047000.0,N
1561584475.1,286047000.1,N
1561584495.9,286047004.3,Y
1561584515.7,286047003.6,P
1561584535.5,286047004.2,N
1561584555.4,286047004.0,N
1561584575.2,286047000.5,N
1561584595.0,286047001.2,N
1561584596.0,286047001.2,N
1561584615.8,286046998.7,N
1561584635.6,286046996.5,N
1561584655.5,286046997.1,N
1561584675.3,286046998.0,N
1561584695.1,286046994.9,N
1561584715.9,286046997.7,N
1561584735.7,286046997.0,N
1561584755.6,286046997.4,N
1561584775.4,286046997.7,N
1561584795.2,286046997.8,N
1561584815.1,286046995.4,N
1561584816.0,286046995.4,N
1561584835.8,286046995.4,N
1561584855.6,286046996.2,N
1561584875.5,286046994.1,N
1561584895.3,286046995.8,N
1561584915.2,286046995.1,N
1561584935.9,286046997.4,N
1561584955.7,286046999.5,N
1561584975.6,286046999.3,N
1561584995.4,286046998.3,N
1561585015.2,286046998.1,N
1561585035.1,286047002.1,N
1561585036.0,286047002.1,N
1561585055.8,286047002.7,N
1561585075.7,286046998.8,N
1561585095.5,286047000.4,N
1561585115.3,286047000.1,N
1561585135.2,286047004.0,N
1561585155.0,286047003.3,N
1561585155.9,286047003.3,N
1561585175.8,286047003.0,N
1561585195.6,286047002.9,N
1561585215.4,286047003.8,N
1561585235.3,286047003.3,N
1561585255.1,286047005.1,N
1561585275.9,286047003.9,N
1561585295.7,286047003.7,N
1561585315.5,286047004.0,N
1561585335.4,286047004.0,N
1561585355.2,286047002.8,N
1561585375.0,286047002.3,N
1561585376.0,286047002.3,N
1561585395.8,286047002.5,N
1561585415.6,286047002.7,N
1561585435.5,286047002.1,N
1561585455.3,286047005.8,N
1561585475.1,286047007.2,Y
1561585495.9,286047005.6,P
1561585515.7,286047004.0,N
1561585535.6,286047003.0,N
1561585555.4,286047003.7,N
1561585575.2,286047003.7,Y
1561585595.1,286047000.3,P
1561585596.0,286047000.3,N
1561585615.8,286047000.9,N
1561585635.7,286047000.1,N
1561585655.5,286047000.7,N
1561585675.3,286047001.2,N
1561585695.2,286047000.8,N
1561585715.9,286046998.6,N
1561585735.7,286047000.9,N
1561585755.6,286047000.6,N
1561585775.4,286047001.7,N
1561585795.3,286047003.5,Y
1561585815.1,286047001.5,P
1561585816.0,286047001.5,P
1561585835.8,286047004.3,P
1561585855.7,286047001.3,N
1561585875.5,286047003.2,N
1561585895.3,286047004.2,Y
1561585915.2,286047001.9,P
1561585935.0,286047001.5,P
1561585935.9,286047001.5,P
1561585955.8,286047005.6,Y
1561585975.6,286047003.0,P
1561585995.4,286047003.4,P
1561586015.3,286047002.7,P
1561586035.1,286047000.8,N
1561586055.8,286047000.3,N
1561586075.7,286047001.2,N
1561586095.5,286047001.2,N
1561586115.4,286046999.7,N
1561586135.2,286046998.5,N
1561586155.0,286047000.6,N
1561586155.9,286047000.6,N
1561586175.8,286046999.1,N
1561586195.6,286046999.0,N
1561586215.4,286046996.6,N
1561586235.3,286046999.1,N
1561586255.1,286046997.1,N
1561586275.9,286046998.8,N
1561586295.7,286046999.0,N
1561586315.5,286046996.5,N
1561586335.4,286046999.4,N
1561586355.2,286046998.9,N
1561586375.0,286046999.1,N
1561586375.9,286046999.1,N
1561586395.8,286046999.5,N
